Location: Mococo
(38.0255°N, 122.1161°W)
Time: 11:36:44
(UTC+00:00)

Cosmos 836 Rocket - Pass Details

Date: 13 February 2026
Orbit: 753 x 773 km, 74.1° (Epoch: 17 March)

Event Time Altitude Azimuth Distance (km) Brightness Sun altitude
Exits shadow 13:03:50 23° 341° (NNW) 1,605 6.0 -23.6°
Maximum altitude 13:07:13 87° 254° (WSW) 772 4.4 -22.9°
Drops below altitude 10° 13:12:25 10° 165° (SSE) 2,288 7.1 -21.9°
Sets 13:14:46 0° 165° (SSE) 3,207 7.9 -21.4°
